Torna al catalogo

FENGYUN 1C DEB

AttivoPO
NORAD 31236·DEBRIS·🇨🇳 China

Lanciato May 10, 1999 da Taiyuan Satellite Launch Center

Loading…

Prossimi Passaggi (prossime 24 ore)

TLE

AggiornatoSource: Space-Track

Epoca: Sep 13, 2026, 18:35 UTC

1 31236U 99025BLS 26256.77436424  .00005443  00000-0  30943-2 0  9995
2 31236  98.5435 194.1820 0308224  11.3685 349.4235 13.88946062648396

Traccia FENGYUN 1C DEB in tempo reale con AllMySat

Download on the App Store